Location: Bieujac
(44.5398°N, 0.1549°W)
Time: 13:48:51
(UTC+00:00)

Cosmos 2058 - Pass Details

Date: 17 November 2019
Orbit: 562 x 585 km, 82.5° (Epoch: 05 December)

Event Time Altitude Azimuth Distance (km) Brightness Sun altitude
Exits shadow 05:41:50 19° 312° (NW) 1,428 4.4 -13.8°
Drops below altitude 10° 05:43:54 10° 339° (NNW) 1,909 5.2 -13.4°
Sets 05:46:33 0° 356° (N) 2,811 6.2 -13.0°
